Theta_e
339 341 347 347 356 357 361 358 354 356 352 349 348 347 349 350 353 358 348 349 349 350 346 341 331 330 331 331 332 331 332 332 333 333 334 336 337 340 341 337 332 341 328 331 333 326 331 332 327
346 347 347 350 359 365 362 356 357 352 350 348 349 348 349 352 348 348 349 349 348 348 346 346 332 332 332 335 335 339 340 341 341 340 339 340 338 340 343 336 331 339 341 335 339 328 334 339 331
348 350 351 356 361 363 361 357 354 350 348 349 350 351 351 351 348 347 348 348 348 345 344 342 335 332 338 339 339 339 339 338 341 340 341 339 341 340 341 339 340 341 337 336 340 337 336 335 334
349 350 353 360 359 357 355 355 352 351 348 349 350 352 349 348 347 348 348 347 347 344 343 340 333 332 341 338 336 337 340 341 339 339 342 341 341 340 338 339 340 339 337 335 340 339 338 338 335
351 352 358 359 356 353 354 353 352 353 350 350 350 352 347 347 347 348 347 347 345 343 343 345 333 341 340 331 342 343 340 339 342 342 342 343 343 344 341 340 340 337 337 332 341 340 339 337 335
353 353 358 357 354 354 353 353 354 353 352 351 351 350 348 346 347 348 347 345 343 342 342 346 336 338 339 332 341 341 341 337 340 343 345 343 344 343 340 337 334 334 335 332 339 341 340 337 334
353 355 358 354 355 356 356 354 354 354 353 351 350 353 348 347 347 347 345 342 342 342 343 347 344 341 343 333 342 340 339 342 342 342 341 341 337 332 335 335 335 335 335 333 338 339 340 338 336
354 350 354 354 357 358 353 354 354 353 353 351 350 352 350 348 347 346 344 342 343 342 343 347 345 345 349 339 342 342 340 341 340 339 340 339 334 336 335 338 339 339 336 335 337 338 338 339 338
350 354 356 353 353 356 352 355 353 353 352 351 350 350 349 347 348 345 344 342 343 342 342 345 343 345 346 347 342 341 342 342 340 340 339 346 346 345 346 339 338 339 338 337 337 338 338 338 337
351 356 354 348 351 352 352 354 354 353 352 351 350 349 348 347 347 346 344 343 342 341 342 343 343 345 346 345 346 347 345 347 347 347 347 347 347 348 346 340 337 339 339 339 339 339 344 347 344
350 355 350 349 351 352 351 354 353 353 354 351 351 349 347 348 348 346 343 342 341 341 341 343 344 346 346 346 347 347 347 346 347 346 347 347 348 346 348 344 346 345 344 344 345 345 346 346 345
349 348 351 350 349 352 353 353 353 352 353 352 350 349 347 347 346 345 344 343 340 341 341 343 344 346 347 346 347 347 346 345 345 346 338 346 349 348 347 346 345 346 347 347 346 345 347 347 347
344 347 350 350 349 349 349 351 353 353 353 351 350 348 347 347 345 344 344 342 340 341 341 343 344 346 348 347 347 346 346 346 347 347 340 349 349 349 347 347 348 347 348 345 345 344 344 341 347
337 338 344 348 349 348 350 349 351 353 352 351 349 348 347 346 344 344 344 340 341 341 340 342 344 345 347 348 348 348 348 349 349 348 346 344 349 350 348 348 348 347 348 346 346 344 342 343 344
332 339 339 343 348 350 348 351 351 352 351 351 350 348 347 346 344 343 343 342 342 341 342 342 344 344 345 348 347 348 348 347 348 348 344 342 346 343 349 349 349 347 347 344 347 346 342 338 340
328 331 337 343 347 347 347 352 350 351 351 351 350 348 347 346 344 343 343 342 342 342 343 343 342 343 345 346 345 347 347 347 348 349 347 344 345 343 345 344 348 349 348 346 345 337 341 339 340
325 329 333 350 346 348 348 351 352 350 351 352 350 348 347 346 345 343 343 342 342 344 344 344 343 343 342 343 344 346 347 348 349 350 350 344 345 345 348 348 350 342 347 345 345 343 343 340 341
326 328 332 345 347 348 350 351 352 351 351 351 350 348 347 347 346 344 343 343 343 345 345 344 343 343 342 342 340 345 347 348 349 350 350 345 347 344 345 351 346 343 346 346 346 346 343 343 343
327 329 330 339 346 348 350 350 354 350 351 351 351 350 348 347 346 346 345 344 343 344 345 345 344 344 340 340 343 344 346 348 349 349 346 345 344 343 342 351 346 344 347 346 348 347 344 337 337
324 329 332 332 341 347 349 349 348 353 350 350 351 350 348 348 347 345 346 345 343 344 345 346 345 344 331 340 342 344 347 348 348 350 344 344 344 342 346 350 347 345 348 349 343 343 344 345 341
323 324 329 332 335 340 347 350 348 349 351 350 350 350 349 348 348 346 346 345 344 345 346 346 345 340 329 340 341 346 349 350 351 350 348 347 344 345 346 344 348 343 345 349 345 343 344 343 344
323 322 323 329 333 339 343 352 349 348 353 352 350 350 349 348 347 346 346 346 345 345 347 348 346 335 330 329 341 346 347 345 345 348 347 349 344 345 345 346 345 344 346 349 344 345 345 343 342
322 322 322 323 330 333 338 346 346 347 351 354 351 349 349 348 347 346 346 348 347 346 347 349 349 341 338 329 337 343 343 343 345 347 350 351 346 345 349 345 345 343 349 350 347 344 343 341 341
322 322 322 322 322 329 334 340 345 346 347 349 351 350 349 348 347 346 346 347 348 347 347 349 350 339 336 335 329 338 342 343 345 348 349 349 349 350 345 346 344 344 343 345 348 349 342 347 344
323 323 326 325 323 321 328 335 339 341 345 345 348 349 350 350 348 347 346 346 348 348 348 349 350 345 338 338 336 330 333 345 349 349 347 347 347 348 350 343 343 347 343 349 344 344 349 345 346
324 325 326 328 326 324 323 329 335 337 338 341 344 348 350 351 350 350 348 347 347 348 349 349 348 345 342 339 339 330 333 345 348 347 348 348 346 346 348 351 348 341 348 345 346 351 351 352 347
327 326 326 326 327 328 325 324 329 334 336 337 340 344 346 348 349 350 351 351 349 348 348 348 349 346 342 344 342 333 337 341 347 347 347 348 348 347 348 349 351 350 349 351 351 351 353 352 346
326 327 327 327 328 330 329 328 325 333 336 337 339 338 343 345 349 350 351 351 352 350 349 350 350 349 347 346 345 341 338 340 341 348 346 348 349 344 346 345 346 348 349 351 349 353 353 353 352
324 326 327 327 327 329 330 329 328 328 331 336 338 338 339 345 348 349 350 351 352 351 349 350 350 351 349 346 348 346 344 342 340 343 343 344 344 343 342 342 337 342 349 350 346 349 353 354 354
323 325 327 329 330 328 330 329 328 329 329 332 335 336 338 339 344 348 349 350 351 352 350 349 350 350 350 348 344 342 344 340 346 341 342 343 344 343 342 343 340 333 342 350 350 347 352 353 354
Wind_Speed
12 11 10 4 1 3 3 4 1 9 9 5 14 4 9 11 8 8 28 21 25 24 22 20 20 19 18 16 15 13 12 11 10 9 9 8 9 9 7 7 8 8 8 10 10 11 12 12 10
13 11 8 2 3 6 3 2 3 7 11 17 12 12 6 7 10 24 26 27 25 23 21 18 19 18 17 16 15 14 13 13 12 11 10 10 9 9 8 9 8 8 8 11 12 13 13 12 12
12 8 3 3 4 2 1 3 8 7 13 15 7 5 5 5 12 29 27 30 25 24 21 19 19 19 18 16 16 15 13 12 12 11 11 11 10 9 9 9 7 7 7 10 11 12 13 13 13
10 5 3 4 3 4 3 4 14 15 14 9 12 9 8 6 24 23 32 29 26 24 21 20 19 19 16 15 15 14 14 13 13 12 13 12 11 10 9 8 7 7 8 10 12 12 12 11 13
7 4 4 5 4 4 9 6 14 12 13 11 9 8 7 16 14 31 33 29 26 23 21 19 20 17 15 16 15 14 14 13 12 12 14 13 12 10 9 8 7 7 9 10 11 12 12 13 12
4 6 4 2 3 7 7 8 10 12 11 12 8 11 8 14 25 33 31 29 25 23 21 18 19 18 15 17 16 14 14 15 15 16 14 13 12 12 11 9 9 8 9 11 12 10 11 13 13
4 6 4 3 2 6 10 10 16 11 10 10 9 6 11 21 30 32 30 27 24 23 21 18 16 17 15 16 15 14 15 15 16 17 15 14 13 13 11 11 11 10 10 13 13 12 13 12 13
7 4 4 3 3 3 8 9 12 12 11 13 12 6 13 29 30 31 29 27 24 22 20 19 16 14 12 14 15 14 15 15 15 15 14 13 13 12 12 12 13 13 14 14 14 12 14 12 13
4 6 5 2 4 7 11 7 11 6 13 9 12 6 20 34 31 32 31 27 24 22 21 18 17 15 15 12 14 14 14 14 13 12 13 13 8 9 10 11 14 15 15 15 14 13 14 14 15
10 6 3 6 5 4 12 13 13 11 14 8 11 10 33 36 33 34 33 31 26 24 22 20 18 15 15 13 13 11 11 10 10 9 10 9 9 10 8 11 13 15 15 15 15 14 16 10 10
11 5 1 3 4 15 13 10 10 10 10 12 17 28 35 36 34 33 31 29 27 25 23 21 19 17 15 14 13 12 12 11 10 11 10 8 8 7 7 8 7 8 12 7 9 9 7 7 7
10 13 7 4 7 6 8 12 9 11 8 10 18 29 38 38 36 34 31 29 27 25 23 21 18 17 15 14 13 13 12 11 10 9 10 7 7 7 8 7 7 8 7 7 8 6 5 5 7
17 9 6 8 6 5 7 7 4 10 5 12 21 29 37 37 35 32 29 28 26 25 23 21 19 18 16 16 13 13 12 12 10 9 9 7 7 7 7 7 7 7 7 7 7 6 6 6 6
4 18 14 6 11 7 7 6 9 6 10 16 23 31 36 37 36 33 31 30 27 25 24 22 20 18 16 16 16 14 13 11 9 8 8 8 9 8 6 6 5 6 6 7 6 6 6 7 7
15 9 9 18 16 8 8 10 10 13 14 17 22 29 34 34 34 33 31 30 27 25 24 23 21 19 17 16 15 13 11 10 9 8 10 10 8 8 8 5 6 5 5 7 5 6 6 7 6
15 15 14 16 16 10 11 10 13 15 17 20 23 29 33 33 33 31 30 28 26 25 24 23 21 20 19 16 16 13 11 11 10 8 8 9 9 9 7 6 5 6 5 4 7 9 8 6 6
13 14 18 12 16 10 14 6 15 16 17 20 24 28 32 32 31 31 30 28 27 25 24 24 23 21 20 19 16 14 13 12 11 9 7 8 8 8 6 5 6 9 9 6 7 6 6 7 7
16 18 14 17 15 18 16 7 11 15 16 20 23 26 30 32 34 33 31 29 27 26 24 23 23 21 21 19 20 14 14 12 11 9 8 8 7 8 6 5 6 6 6 7 7 8 8 8 5
8 12 18 14 11 15 17 14 14 15 17 20 23 27 30 33 33 31 31 30 29 27 26 25 25 23 23 22 20 17 16 14 11 10 11 9 8 8 7 4 5 7 5 6 6 6 6 7 4
16 12 14 14 10 9 17 18 14 17 18 22 24 27 29 30 33 34 32 33 32 30 29 28 27 25 28 22 21 18 16 13 11 10 13 10 9 8 7 7 5 8 7 6 7 8 7 6 7
19 19 12 14 12 9 17 17 16 16 17 19 21 24 26 30 34 36 34 35 34 33 32 30 30 29 30 23 22 20 16 14 13 13 12 12 11 9 7 6 6 6 5 3 5 6 9 7 6
20 18 16 13 11 14 21 15 21 19 19 19 24 27 29 31 32 34 36 36 38 36 32 31 31 34 33 32 24 24 21 18 16 14 12 11 13 11 9 7 6 6 6 7 7 7 7 9 7
16 14 14 17 15 15 16 13 16 24 19 21 24 28 29 31 34 36 39 38 37 36 35 33 31 34 33 36 29 26 24 19 16 16 15 13 12 12 11 10 9 6 5 8 7 8 8 8 8
13 16 14 15 16 18 23 18 18 18 22 22 24 28 30 31 34 35 36 35 36 35 35 34 35 40 39 37 38 32 26 23 20 19 16 15 13 13 14 11 9 8 6 6 8 9 8 9 8
17 17 10 11 14 21 23 21 18 18 19 21 19 28 31 32 34 35 38 39 38 39 38 37 37 42 43 39 38 39 34 28 23 20 19 17 16 15 15 16 13 11 10 8 8 9 9 7 8
23 21 12 20 16 19 23 25 23 26 17 22 25 24 28 29 31 35 38 39 39 40 41 39 39 44 44 43 40 40 37 30 27 24 20 18 17 16 15 16 16 14 12 11 11 8 8 8 7
20 23 25 25 16 16 18 20 18 23 28 16 18 21 25 28 31 35 37 39 39 41 44 45 42 44 46 43 43 42 40 38 28 27 24 22 19 17 17 17 17 17 15 15 13 10 10 10 8
20 17 21 18 22 22 17 20 20 19 22 26 24 22 24 24 27 31 34 37 39 39 40 41 40 41 44 43 43 43 43 41 39 30 30 25 21 22 19 18 19 18 17 18 17 13 12 11 9
17 22 18 20 18 19 18 15 14 21 26 23 24 31 26 22 25 29 33 37 39 37 38 41 39 39 41 45 41 42 41 41 41 37 35 32 28 26 22 21 19 19 18 19 21 18 15 13 12
14 14 27 16 28 22 16 15 7 9 19 24 27 30 32 30 27 28 29 32 36 39 40 42 40 39 38 43 48 47 43 43 37 41 38 34 31 29 25 24 22 22 21 20 21 21 17 17 16
Wind_Direction
156 155 148 159 274 227 214 57 123 119 138 111 127 126 124 41 12 88 142 143 145 142 144 142 146 147 146 144 146 150 153 151 151 156 153 142 132 123 125 109 110 97 75 79 82 98 99 97 103
158 159 157 178 253 205 105 132 196 120 125 133 110 135 123 87 78 132 141 146 145 141 139 144 148 143 138 136 137 138 135 135 133 131 132 132 129 122 114 103 104 100 84 85 84 92 104 102 95
156 172 215 227 214 11 104 29 152 125 138 141 105 83 67 80 121 141 148 147 144 143 144 154 144 139 135 133 132 132 133 128 124 122 120 122 115 111 114 117 111 95 94 94 88 96 98 104 102
161 209 256 260 301 81 180 73 134 140 151 133 137 97 88 87 142 149 148 147 146 148 148 148 143 140 138 138 134 132 133 128 122 118 116 119 117 120 126 120 110 98 106 105 93 97 92 92 102
186 236 220 217 227 182 180 182 153 148 156 164 157 108 97 134 145 150 150 149 151 148 150 146 144 139 139 138 132 129 126 124 121 115 111 111 117 112 109 108 110 101 104 107 103 93 93 94 101
212 247 238 154 206 199 159 157 173 167 156 148 146 128 127 156 154 153 152 153 150 150 147 150 147 145 138 139 136 130 128 123 119 113 110 111 114 113 101 102 107 105 103 114 105 95 98 93 95
250 245 286 293 148 158 129 167 191 160 158 171 158 128 128 150 153 153 153 154 152 150 152 149 147 147 138 142 137 134 131 127 125 122 123 118 111 107 101 93 94 100 103 114 109 94 93 95 94
254 275 245 237 169 151 130 164 154 159 166 144 156 159 156 158 155 155 156 156 153 154 154 155 153 150 135 145 146 140 137 135 130 129 122 119 115 108 98 85 90 93 101 113 108 97 100 98 95
230 253 229 175 252 110 142 145 143 136 153 167 178 160 157 158 155 157 160 161 159 159 158 156 157 155 151 154 151 147 144 142 135 129 125 93 108 111 99 125 95 92 100 103 104 101 92 88 91
223 265 321 27 44 163 158 164 158 164 158 156 161 136 151 157 159 162 166 166 166 165 163 162 163 161 151 151 145 148 142 136 142 144 136 131 131 133 126 107 98 98 97 99 101 100 91 105 90
218 253 279 73 60 136 165 166 175 161 182 174 167 153 159 161 164 167 170 171 169 168 165 168 165 159 157 163 153 151 151 157 160 155 138 154 131 117 117 113 97 105 93 95 96 84 83 97 96
249 224 259 27 142 127 155 151 162 179 75 158 166 164 164 166 169 171 172 172 171 172 171 169 169 163 162 163 155 159 161 156 153 164 152 150 117 134 136 141 134 117 115 117 113 107 111 105 110
230 254 242 216 185 161 161 167 158 188 136 147 157 165 168 169 171 174 175 174 174 175 174 173 173 169 172 164 165 164 164 150 167 160 163 159 148 150 137 139 135 137 131 122 111 111 100 97 124
208 241 249 218 204 191 229 159 190 154 153 154 162 168 172 173 174 175 177 178 178 177 177 177 177 176 175 167 170 170 162 174 163 175 182 172 138 146 151 138 136 125 140 137 128 121 107 94 113
235 262 222 229 224 229 227 205 204 144 153 158 166 170 174 177 178 180 180 181 180 181 179 182 180 181 179 177 173 170 176 171 164 167 164 161 154 158 149 153 141 146 147 159 137 120 108 107 116
224 230 250 207 196 210 226 191 150 162 161 163 169 174 178 181 183 182 183 183 184 183 185 184 182 186 184 185 180 177 177 167 168 169 172 170 168 157 142 163 167 179 126 150 162 141 136 124 118
204 221 214 166 194 189 211 188 146 169 170 167 172 178 181 184 186 187 187 186 187 186 188 188 186 188 188 190 184 180 182 166 170 167 165 177 166 171 159 163 176 151 155 124 130 142 142 145 131
209 221 214 220 183 208 202 201 157 177 178 173 177 181 187 190 190 189 190 189 188 190 192 192 191 191 190 192 189 188 186 179 181 185 186 189 182 175 157 188 176 159 165 147 145 142 149 152 154
309 242 229 210 203 209 218 215 169 183 189 180 183 185 190 194 192 192 192 192 192 194 194 195 194 196 192 193 191 193 191 189 194 199 198 183 185 183 183 194 188 148 173 166 167 167 157 172 139
241 241 233 240 205 208 228 219 184 184 198 191 189 191 193 191 192 193 195 195 195 196 197 198 199 200 198 197 192 195 196 200 194 194 192 187 180 188 192 188 198 181 185 176 167 158 163 175 179
229 232 229 238 203 217 257 232 219 183 202 195 197 197 196 194 192 194 197 198 198 200 200 202 202 204 203 196 196 196 196 195 198 199 200 201 198 196 197 197 186 200 187 186 186 180 187 171 188
232 220 240 247 249 233 213 234 209 204 200 200 197 198 197 197 198 198 198 199 202 202 203 204 205 207 209 206 202 203 200 200 203 199 197 201 208 210 214 214 214 226 202 199 186 176 182 171 175
242 243 220 236 247 261 239 235 234 195 199 204 205 203 201 200 199 199 203 204 203 203 204 205 206 208 209 212 203 211 205 209 208 201 205 193 205 210 217 225 224 230 209 210 197 192 164 177 177
222 231 233 230 238 240 229 230 226 213 208 204 201 208 204 202 203 204 205 205 205 204 204 205 206 211 212 215 214 213 212 205 206 206 210 210 213 220 221 226 233 235 233 213 209 204 191 188 191
210 204 210 210 215 234 223 229 233 225 203 222 207 206 205 204 203 203 203 203 204 204 204 204 206 210 214 215 218 218 217 213 210 210 211 214 217 218 225 229 237 235 235 226 229 216 209 204 203
215 217 218 217 212 228 222 230 222 238 270 213 224 205 206 205 206 206 205 204 205 205 205 204 207 210 211 214 216 218 219 216 218 223 215 222 221 225 223 233 232 239 241 240 237 225 214 220 211
207 222 231 255 237 246 217 219 240 217 221 214 223 215 201 207 208 208 205 205 204 205 206 206 206 210 211 211 216 218 219 217 219 219 231 225 226 226 230 230 231 233 237 232 230 219 226 216 230
254 236 218 234 237 238 227 233 215 209 215 219 219 214 214 210 210 208 207 206 206 205 206 206 207 210 210 211 216 217 219 221 223 227 230 230 227 235 228 238 231 232 230 228 229 227 235 224 224
215 237 243 234 226 234 239 222 227 212 213 224 221 219 211 205 206 207 207 208 207 204 202 205 205 206 208 212 212 213 218 222 226 228 235 236 235 236 236 242 238 227 224 227 232 228 222 236 231
300 277 222 231 222 234 261 232 137 229 220 216 226 216 222 221 214 212 210 206 205 204 203 203 204 204 207 208 214 218 218 220 221 228 232 235 234 233 234 238 237 232 228 228 233 235 230 235 236